千帆星座-22 (QIANFAN-22)

导读

QIANFAN-22 是中国“北斗”卫星导航系统的重要组成部分,于2023年成功发射。该卫星属于北斗三号系统,具备高精度定位、导航和授时功能,广泛服务于交通、农业、通信和应急救援等领域。QIANFAN-22 采用先进技术和国产化设备,增强了系统的自主可控性和稳定性,提升了中国在全球卫星导航领域的竞争力。

Basic Information
目录编号:
61555
目录名称:
QIANFAN-22
国际标识:
2024-185D
轨道中心:
EARTH
卫星名称:
千帆星座-22
卫星全名:
千帆星座-22 (QIANFAN-22)
卫星状态:
在轨 (已飞行651 天)
发射日期:
2024-10-15 UTC
国别 :
中国 (CN)
星等 :
--
Orbit Information
数据来源 国际轨道数据 AOE轨道数据
星历时间 2026-07-27T21:35:44+0800
13小时前
查看轨道信息
2026-07-26T09:00:00+0800
2天前
查看轨道信息
半长轴 7319.372km 7319.38km
偏心率 0.0007656 0.0007453
轨道倾角 88.979° 88.979°
近地点辐角 37.449° 40.313°
升交点赤经 54.396° 54.563°
平近点角 322.722° 274.069°
近地点 935.631km 935.787km
远地点 946.839km 946.699km
周期 103.865分钟 103.865分钟
每日圈数 13.864113 13.864089
Detailed Information
卫星平台:
22
覆盖范围:
全球
运营商:
上海垣信卫星科技有限公司
运营商所在国:
中国
使用方式:
暂无
Satellite Introduction
千帆星座,也被称为“G60星链”计划,是中国版“星链”的重要组成部分,旨在打造一个由1.4万多颗低轨宽频多媒体卫星构成的庞大星座。千帆星座计划由上海垣信卫星科技有限公司负责实施,于2023年启动建设。该项目是我国第二个低轨卫星大星座,旨在通过构建庞大的卫星网络,为全球用户提供高质量的通信和宽带互联网服务。
2D Orbit Map
3D Orbit Map
Orbit Altitude Analysis Chart
Orbit Inclination Analysis Chart
Orbit Comprehensive Analysis Chart
View Comprehensive Chart